Date,TemperatureHighF,TemperatureAvgF,TemperatureLowF,DewpointHighF,DewpointAvgF,DewpointLowF,HumidityHigh,HumidityAvg,HumidityLow,PressureMaxIn,PressureMinIn,WindSpeedMaxMPH,WindSpeedAvgMPH,GustSpeedMaxMPH,PrecipitationSumIn
2013-3-1,54,43,30,-100,-100,-100,0,0,100,0.00,40.00,0,-999,0,0.00
2013-3-2,61,41,24,-100,-100,-100,0,0,100,0.00,40.00,0,-999,0,0.00
2013-3-3,54,41,28,-100,-100,-100,0,0,100,0.00,40.00,0,-999,0,0.00
2013-3-4,53,42,26,-100,-100,-100,0,0,100,0.00,40.00,0,-999,0,0.00
2013-3-5,56,38,22,-100,-100,-100,0,0,100,0.00,40.00,0,-999,0,0.00
2013-3-6,60,43,29,-100,-100,-100,0,0,100,0.00,40.00,0,-999,0,0.00
2013-3-7,62,43,27,-100,-100,-100,0,0,100,0.00,40.00,0,-999,0,0.00
2013-3-8,48,38,32,-100,-100,-100,0,0,100,0.00,40.00,0,-999,0,0.00
2013-3-9,38,32,27,-100,-100,-100,0,0,100,0.00,40.00,0,-999,0,0.00
2013-3-10,49,34,21,-100,-100,-100,0,0,100,0.00,40.00,0,-999,0,0.00
2013-3-11,54,39,23,-100,-100,-100,0,0,100,0.00,40.00,0,-999,0,0.00
2013-3-12,60,45,27,-100,-100,-100,0,0,100,0.00,40.00,0,-999,0,0.00
2013-3-13,65,44,27,-100,-100,-100,0,0,100,0.00,40.00,0,-999,0,0.00
2013-3-14,71,49,29,-100,-100,-100,0,0,100,0.00,40.00,0,-999,0,0.00
2013-3-15,72,50,32,-100,-100,-100,0,0,100,0.00,40.00,0,-999,0,0.00
2013-3-16,64,48,36,-100,-100,-100,0,0,100,0.00,40.00,0,-999,0,0.00
2013-3-17,59,45,32,-100,-100,-100,0,0,100,0.00,40.00,0,-999,0,0.00
2013-3-18,56,45,31,-100,-100,-100,0,0,100,0.00,40.00,0,-999,0,0.00
2013-3-19,56,44,31,-100,-100,-100,0,0,100,0.00,40.00,0,-999,0,0.00
2013-3-20,56,42,25,-100,-100,-100,0,0,100,0.00,40.00,0,-999,0,0.00
2013-3-21,60,46,34,-100,-100,-100,0,0,100,0.00,40.00,0,-999,0,0.00
2013-3-22,59,42,20,-100,-100,-100,0,0,100,0.00,40.00,0,-999,0,0.00
2013-3-23,40,30,15,-100,-100,-100,0,0,100,0.00,40.00,0,-999,0,0.00
2013-3-24,44,26,10,-100,-100,-100,0,0,100,0.00,40.00,0,-999,0,0.00
2013-3-25,49,32,12,-100,-100,-100,0,0,100,0.00,40.00,0,-999,0,0.00
2013-3-26,58,40,23,-100,-100,-100,0,0,100,0.00,40.00,0,-999,0,0.00
2013-3-27,64,47,28,-100,-100,-100,0,0,100,0.00,40.00,0,-999,0,0.00
2013-3-28,65,50,33,-100,-100,-100,0,0,100,0.00,40.00,0,-999,0,0.00
2013-3-29,68,51,35,-100,-100,-100,0,0,100,0.00,40.00,0,-999,0,0.00
2013-3-30,67,50,32,-100,-100,-100,0,0,100,0.00,40.00,0,-999,0,0.00
2013-3-31,67,51,33,-100,-100,-100,0,0,100,0.00,40.00,0,-999,0,0.00